GW0175 Weather Reports


time (UTC)temp
F
wind
direction
speed
knots
gust
knots
rain 1hr
in
rain 24hr
in
rain mn
in
humidity
%
barometer
mb
20260831174613 91 201 3.5 13.9 0.00 0.00 0.00 38 1014.2
20260831174108 91 169 7.0 11.3 0.00 0.00 0.00 39 1014.1
20260831173606 91 194 4.3 9.6 0.00 0.00 0.00 40 1014.1
20260831173103 91 167 4.3 9.6 0.00 0.00 0.00 40 1014.1
20260831172602 91 200 4.3 13.0 0.00 0.00 0.00 40 1013.9
20260831172057 91 179 4.3 11.3 0.00 0.00 0.00 42 1014.1
20260831171553 90 164 5.2 13.0 0.00 0.00 0.00 43 1014.4
20260831171050 89 150 3.5 9.6 0.00 0.00 0.00 43 1014.1
20260831170545 90 151 2.6 8.7 0.00 0.00 0.00 43 1014.2
20260831170043 90 162 5.2 9.6 0.00 0.00 0.00 42 1014.4
20260831165543 89 135 5.2 7.0 0.00 0.00 0.00 43 1014.4
20260831165040 88 191 4.3 11.3 0.00 0.00 0.00 45 1014.4
20260831164536 89 187 2.6 8.7 0.00 0.00 0.00 44 1014.5
20260831164031 87 169 2.6 7.8 0.00 0.00 0.00 46 1014.3
20260831163525 88 180 4.3 8.7 0.00 0.00 0.00 45 1014.5
20260831163021 87 168 4.3 9.6 0.00 0.00 0.00 46 1014.7
20260831162520 86 186 6.1 9.6 0.00 0.00 0.00 46 1014.6
20260831162018 86 176 3.5 9.6 0.00 0.00 0.00 47 1014.4
20260831161515 86 193 4.3 7.8 0.00 0.00 0.00 47 1014.5
20260831161010 85 150 4.3 10.4 0.00 0.00 0.00 48 1014.4
20260831160510 86 164 4.3 9.6 0.00 0.00 0.00 48 1014.5
20260831160005 85 174 5.2 9.6 0.00 0.00 0.00 49 1014.3
20260831155500 85 159 4.3 10.4 0.00 0.00 0.00 49 1014.2
20260831154955 84 162 1.7 11.3 0.00 0.00 0.00 49 1014.4
20260831154452 84 156 3.5 9.6 0.00 0.00 0.00 50 1014.2
20260831153950 84 189 3.5 11.3 0.00 0.00 0.00 50 1014.4
20260831153446 84 157 11.3 12.2 0.00 0.00 0.00 50 1014.3
20260831152942 84 175 4.3 9.6 0.00 0.00 0.00 50 1014.2
20260831152437 83 160 6.1 9.6 0.00 0.00 0.00 51 1014.5
20260831151933 83 175 4.3 9.6 0.00 0.00 0.00 52 1014.5
20260831151431 82 194 8.7 13.0 0.00 0.00 0.00 52 1014.3
20260831150927 82 198 4.3 13.9 0.00 0.00 0.00 52 1014.4
20260831150422 82 178 7.0 12.2 0.00 0.00 0.00 52 1014.4
20260831145922 82 160 0.9 11.3 0.00 0.00 0.00 53 1014.5
20260831145418 81 197 4.3 11.3 0.00 0.00 0.00 53 1014.4
20260831144914 81 198 4.3 7.8 0.00 0.00 0.00 53 1014.4
20260831144409 80 164 5.2 15.6 0.00 0.00 0.00 54 1014.2
20260831143904 80 182 6.1 13.0 0.00 0.00 0.00 54 1014.4
20260831143359 80 166 4.3 13.9 0.00 0.00 0.00 55 1014.4
20260831142855 80 186 3.5 12.2 0.00 0.00 0.00 55 1014.5
20260831142350 80 166 6.1 12.2 0.00 0.00 0.00 55 1014.4
20260831141849 79 180 7.8 13.0 0.00 0.00 0.00 55 1014.4
20260831141339 79 132 3.5 11.3 0.00 0.00 0.00 55 1014.5
20260831140834 79 174 10.4 12.2 0.00 0.00 0.00 55 1014.4
20260831140328 79 203 5.2 9.6 0.00 0.00 0.00 55 1014.4
20260831135826 79 190 4.3 9.6 0.00 0.00 0.00 55 1014.2
20260831135321 79 180 2.6 7.0 0.00 0.00 0.00 55 1014.3
20260831134816 78 186 3.5 7.8 0.00 0.00 0.00 56 1014.3
20260831134313 78 179 3.5 6.1 0.00 0.00 0.00 57 1014.2
20260831133812 77 155 7.0 7.0 0.00 0.00 0.00 57 1014.3
20260831133307 77 172 3.5 5.2 0.00 0.00 0.00 58 1014.2
20260831132802 77 184 3.5 6.1 0.00 0.00 0.00 58 1013.9
20260831132257 76 180 3.5 5.2 0.00 0.00 0.00 59 1014.2
20260831131756 76 172 2.6 7.0 0.00 0.00 0.00 59 1013.6
20260831131253 76 164 2.6 4.3 0.00 0.00 0.00 59 1013.8
20260831130748 75 209 0.0 5.2 0.00 0.00 0.00 59 1013.6
20260831130243 75 159 1.7 4.3 0.00 0.00 0.00 59 1013.4
20260831125742 75 175 2.6 4.3 0.00 0.00 0.00 60 1013.6
20260831125238 75 168 0.9 3.5 0.00 0.00 0.00 60 1013.7
20260831124732 75 162 0.0 3.5 0.00 0.00 0.00 60 1013.5
20260831124228 75 158 1.7 5.2 0.00 0.00 0.00 60 1013.4
20260831123723 75 180 4.3 7.0 0.00 0.00 0.00 60 1013.2
20260831123222 75 169 2.6 4.3 0.00 0.00 0.00 59 1013.1
20260831122721 75 169 6.1 6.1 0.00 0.00 0.00 59 1013.0
20260831122218 76 172 2.6 4.3 0.00 0.00 0.00 59 1013.1
20260831121716 76 178 2.6 6.1 0.00 0.00 0.00 58 1013.0
20260831121213 76 178 6.1 6.1 0.00 0.00 0.00 58 1013.1
20260831120708 76 180 4.3 6.1 0.00 0.00 0.00 58 1013.1
20260831120203 76 173 1.7 7.8 0.00 0.00 0.00 57 1013.0
20260831115659 77 206 2.6 7.0 0.00 0.00 0.00 57 1012.6
20260831115154 77 170 4.3 6.1 0.00 0.00 0.00 57 1012.9
20260831114654 76 205 3.5 7.8 0.00 0.00 0.00 57 1012.9
20260831114148 77 169 5.2 7.0 0.00 0.00 0.00 57 1012.9
20260831113648 76 172 2.6 7.0 0.00 0.00 0.00 57 1013.0
20260831113143 76 168 1.7 4.3 0.00 0.00 0.00 58 1012.7
20260831112642 76 180 0.0 5.2 0.00 0.00 0.00 58 1012.7
20260831112138 77 169 2.6 5.2 0.00 0.00 0.00 58 1013.0
20260831111633 77 166 4.3 5.2 0.00 0.00 0.00 58 1013.1
20260831111129 77 174 3.5 6.1 0.00 0.00 0.00 57 1013.0
20260831110625 77 175 4.3 7.0 0.00 0.00 0.00 57 1012.7
20260831110120 77 164 5.2 6.1 0.00 0.00 0.00 58 1012.9
20260831105619 76 170 3.5 5.2 0.00 0.00 0.00 58 1013.1
20260831105113 77 150 4.3 5.2 0.00 0.00 0.00 57 1012.7
20260831104604 77 146 2.6 5.2 0.00 0.00 0.00 57 1013.0
20260831104100 77 119 5.2 7.0 0.00 0.00 0.00 57 1013.0
20260831103555 76 178 3.5 5.2 0.00 0.00 0.00 58 1013.2
20260831103051 76 180 1.7 5.2 0.00 0.00 0.00 58 1013.0
20260831102550 77 163 2.6 4.3 0.00 0.00 0.00 57 1012.9
20260831102046 77 174 2.6 5.2 0.00 0.00 0.00 57 1013.0
20260831101540 77 160 3.5 4.3 0.00 0.00 0.00 57 1012.7
20260831101037 77 159 0.0 3.5 0.00 0.00 0.00 56 1013.1
20260831100532 78 178 2.6 5.2 0.00 0.00 0.00 55 1013.2
20260831100028 77 170 2.6 5.2 0.00 0.00 0.00 56 1013.1
20260831095526 77 198 2.6 5.2 0.00 0.00 0.00 56 1012.9
20260831095021 78 180 0.0 2.6 0.00 0.00 0.00 55 1013.0
20260831094518 78 175 1.7 5.2 0.00 0.00 0.00 55 1013.1
20260831094013 78 173 1.7 2.6 0.00 0.00 0.00 55 1013.0
20260831093513 79 173 2.6 4.3 0.00 0.00 0.00 54 1013.0
20260831093010 79 180 0.0 2.6 0.00 0.00 0.00 54 1013.2
20260831092505 79 200 0.9 3.5 0.00 0.00 0.00 54 1012.9
20260831092001 79 180 3.5 5.2 0.00 0.00 0.00 53 1012.5
20260831091455 80 200 2.6 5.2 0.00 0.00 0.00 53 1012.5
20260831090950 80 166 2.6 6.1 0.00 0.00 0.00 53 1012.6
20260831090446 80 180 4.3 7.0 0.00 0.00 0.00 52 1012.3
20260831085942 80 195 1.7 7.0 0.00 0.00 0.00 52 1012.4
20260831085437 80 161 4.3 7.0 0.00 0.00 0.00 52 1012.6
20260831084936 80 171 3.5 7.8 0.00 0.00 0.00 52 1012.3
20260831084433 80 160 2.6 7.8 0.00 0.00 0.00 51 1012.4
20260831083930 81 210 0.0 7.0 0.00 0.00 0.00 51 1012.5
20260831083425 81 209 2.6 7.0 0.00 0.00 0.00 51 1012.6
20260831082924 81 152 1.7 7.0 0.00 0.00 0.00 51 1012.4
20260831082423 81 180 1.7 7.0 0.00 0.00 0.00 50 1012.4
20260831081919 81 199 4.3 5.2 0.00 0.00 0.00 50 1012.6
20260831081415 81 187 4.3 7.8 0.00 0.00 0.00 50 1012.4
20260831080910 82 160 5.2 7.8 0.00 0.00 0.00 49 1012.4
20260831080405 82 152 4.3 7.0 0.00 0.00 0.00 49 1012.3
20260831075901 82 180 4.3 6.1 0.00 0.00 0.00 49 1012.5
20260831075356 82 181 4.3 7.8 0.00 0.00 0.00 49 1012.6
20260831074851 82 168 4.3 7.8 0.00 0.00 0.00 48 1012.5
20260831074350 83 181 4.3 9.6 0.00 0.00 0.00 48 1012.5
20260831073845 83 179 6.1 7.0 0.00 0.00 0.00 47 1012.6
20260831073344 83 166 3.5 8.7 0.00 0.00 0.00 47 1012.7
20260831072840 83 187 7.0 8.7 0.00 0.00 0.00 46 1012.9
20260831072335 84 155 3.5 7.8 0.00 0.00 0.00 46 1012.9
20260831071831 84 176 3.5 8.7 0.00 0.00 0.00 46 1012.9
20260831071330 84 186 5.2 10.4 0.00 0.00 0.00 45 1012.6
20260831070826 84 178 7.8 12.2 0.00 0.00 0.00 45 1012.6
20260831070324 84 176 3.5 7.8 0.00 0.00 0.00 45 1012.7
20260831065824 84 175 8.7 11.3 0.00 0.00 0.00 45 1012.4
20260831065322 84 173 5.2 10.4 0.00 0.00 0.00 44 1012.6
20260831064817 84 200 3.5 8.7 0.00 0.00 0.00 44 1012.7
20260831064307 84 181 5.2 9.6 0.00 0.00 0.00 43 1012.7
20260831063803 84 194 5.2 8.7 0.00 0.00 0.00 43 1012.9
20260831063257 84 194 5.2 5.2 0.00 0.00 0.00 43 1012.9
20260831062752 84 156 4.3 7.8 0.00 0.00 0.00 42 1012.9
20260831062247 85 177 6.1 9.6 0.00 0.00 0.00 42 1012.7
20260831061745 85 196 6.1 8.7 0.00 0.00 0.00 42 1012.9
20260831061240 85 180 4.3 7.8 0.00 0.00 0.00 41 1012.5
20260831060736 85 170 3.5 10.4 0.00 0.00 0.00 41 1012.9
20260831060236 85 177 6.1 7.8 0.00 0.00 0.00 40 1012.7
20260831055735 85 186 3.5 8.7 0.00 0.00 0.00 40 1012.9
20260831055230 85 197 3.5 8.7 0.00 0.00 0.00 40 1013.1
20260831054725 85 168 3.5 7.8 0.00 0.00 0.00 40 1012.9
20260831054220 85 168 3.5 5.2 0.00 0.00 0.00 40 1013.1
20260831053713 85 157 2.6 7.0 0.00 0.00 0.00 39 1012.9
20260831053212 85 176 5.2 7.8 0.00 0.00 0.00 39 1012.7
20260831052712 85 166 5.2 7.0 0.00 0.00 0.00 38 1012.7
20260831052212 85 192 3.5 7.8 0.00 0.00 0.00 38 1013.0
20260831051709 86 185 7.0 7.8 0.00 0.00 0.00 37 1012.7
20260831051208 85 188 4.3 8.7 0.00 0.00 0.00 37 1012.6
20260831050703 85 171 2.6 7.0 0.00 0.00 0.00 36 1012.7
20260831050202 84 160 2.6 6.1 0.00 0.00 0.00 36 1012.5
20260831045657 85 190 2.6 6.1 0.00 0.00 0.00 35 1012.5
20260831045151 85 190 2.6 5.2 0.00 0.00 0.00 35 1012.5
20260831044646 85 187 2.6 6.1 0.00 0.00 0.00 34 1012.5
20260831044141 86 149 2.6 5.2 0.00 0.00 0.00 34 1012.4
20260831043637 86 185 2.6 5.2 0.00 0.00 0.00 34 1012.4
20260831043132 86 164 3.5 5.2 0.00 0.00 0.00 33 1012.4
20260831042631 86 169 4.3 6.1 0.00 0.00 0.00 33 1012.1
20260831042126 86 170 2.6 4.3 0.00 0.00 0.00 33 1012.2
20260831041621 86 151 1.7 4.3 0.00 0.00 0.00 33 1012.1
20260831041121 86 166 2.6 5.2 0.00 0.00 0.00 33 1011.9
20260831040616 86 154 1.7 4.3 0.00 0.00 0.00 33 1012.1
20260831040115 86 154 1.7 3.5 0.00 0.00 0.00 32 1012.1
20260831035614 86 150 1.7 3.5 0.00 0.00 0.00 32 1012.0
20260831035109 86 158 1.7 3.5 0.00 0.00 0.00 32 1011.9
20260831034608 86 157 2.6 3.5 0.00 0.00 0.00 32 1011.5
20260831034103 86 155 2.6 4.3 0.00 0.00 0.00 32 1011.9
20260831033559 86 177 2.6 4.3 0.00 0.00 0.00 32 1011.8
20260831033054 86 166 1.7 3.5 0.00 0.00 0.00 31 1011.6
20260831032553 86 180 1.7 3.5 0.00 0.00 0.00 31 1011.6
20260831032049 87 157 0.9 2.6 0.00 0.00 0.00 30 1011.4
20260831031548 87 175 1.7 3.5 0.00 0.00 0.00 30 1011.3
20260831031048 88 192 0.0 3.5 0.00 0.00 0.00 30 1011.3
20260831030547 88 170 1.7 4.3 0.00 0.00 0.00 29 1011.3
20260831030046 89 159 1.7 4.3 0.00 0.00 0.00 28 1011.1
20260831025545 89 177 2.6 4.3 0.00 0.00 0.00 28 1011.1
20260831025040 88 139 1.7 4.3 0.00 0.00 0.00 29 1010.9
20260831024536 87 180 0.0 4.3 0.00 0.00 0.00 29 1010.8
20260831024035 88 169 1.7 3.5 0.00 0.00 0.00 30 1010.9
20260831023533 88 163 2.6 4.3 0.00 0.00 0.00 29 1010.8
20260831023027 89 152 2.6 4.3 0.00 0.00 0.00 28 1010.7
20260831022527 89 194 2.6 3.5 0.00 0.00 0.00 28 1010.6
20260831022022 89 157 1.7 1.7 0.00 0.00 0.00 28 1010.3
20260831021521 89 173 0.9 3.5 0.00 0.00 0.00 28 1010.3
20260831021017 90 180 0.0 3.5 0.00 0.00 0.00 28 1010.4
20260831020512 90 160 0.9 3.5 0.00 0.00 0.00 28 1010.3
20260831020007 91 162 1.7 2.6 0.00 0.00 0.00 27 1010.1
20260831015503 91 175 0.0 2.6 0.00 0.00 0.00 26 1010.1
20260831014958 92 172 2.6 2.6 0.00 0.00 0.00 26 1010.0
20260831014452 92 144 1.7 2.6 0.00 0.00 0.00 25 1010.2
20260831013948 92 120 0.9 4.3 0.00 0.00 0.00 25 1010.2
20260831013444 92 157 1.7 4.3 0.00 0.00 0.00 25 1010.1
20260831012937 93 177 1.7 3.5 0.00 0.00 0.00 25 1010.0
20260831012433 94 176 1.7 3.5 0.00 0.00 0.00 24 1010.0
20260831011933 94 146 1.7 3.5 0.00 0.00 0.00 24 1009.6
20260831011427 95 117 1.7 4.3 0.00 0.00 0.00 23 1009.9
20260831010923 96 90 0.0 1.7 0.00 0.00 0.00 23 1009.9
20260831010418 96 74 0.9 1.7 0.00 0.00 0.00 22 1009.9
20260831005913 97 131 0.0 4.3 0.00 0.00 0.00 22 1009.8
20260831005409 98 152 1.7 7.0 0.00 0.00 0.00 21 1009.8
20260831004903 98 173 7.8 7.8 0.00 0.00 0.00 21 1009.8
20260831004400 99 75 0.9 4.3 0.00 0.00 0.00 20 1009.7
20260831003855 99 96 0.0 4.3 0.00 0.00 0.00 20 1009.7
20260831003351 100 172 0.0 3.5 0.00 0.00 0.00 20 1010.0
20260831002850 99 135 4.3 8.7 0.00 0.00 0.00 19 1009.9
20260831002349 100 90 0.0 5.2 0.00 0.00 0.00 20 1009.5
20260831001845 100 69 0.0 9.6 0.00 0.00 0.00 20 1009.7
20260831001346 100 186 0.9 4.3 0.00 0.00 0.00 20 1009.6
20260831000843 101 120 0.0 3.5 0.00 0.00 0.00 20 1009.6
20260831000340 101 90 0.0 4.3 0.00 0.00 0.00 20 1009.8
20260830235836 101 95 1.7 5.2 0.00 0.00 0.00 19 1009.7
20260830235331 100 154 0.0 11.3 0.00 0.00 0.00 20 1009.7
20260830234827 100 155 2.6 7.0 0.00 0.00 0.00 20 1009.7
20260830234322 101 98 0.9 5.2 0.00 0.00 0.00 19 1009.7
20260830233818 101 140 0.0 2.6 0.00 0.00 0.00 20 1009.8
20260830233313 101 153 3.5 7.8 0.00 0.00 0.00 20 1010.0
20260830232809 101 134 4.3 7.8 0.00 0.00 0.00 20 1009.9
20260830232306 102 162 2.6 5.2 0.00 0.00 0.00 20 1009.9
20260830231800 102 184 3.5 3.5 0.00 0.00 0.00 20 1010.1
20260830231255 102 216 0.0 9.6 0.00 0.00 0.00 20 1010.0
20260830230749 102 127 5.2 5.2 0.00 0.00 0.00 19 1010.2
20260830230245 102 101 2.6 5.2 0.00 0.00 0.00 19 1010.0
20260830225744 101 77 0.0 7.0 0.00 0.00 0.00 21 1010.2
20260830225239 102 165 2.6 6.1 0.00 0.00 0.00 20 1009.9
20260830224738 102 148 5.2 6.1 0.00 0.00 0.00 20 1010.1
20260830224234 102 159 5.2 11.3 0.00 0.00 0.00 20 1010.0
20260830223730 103 102 2.6 6.1 0.00 0.00 0.00 20 1009.9
20260830223226 102 111 3.5 9.6 0.00 0.00 0.00 21 1010.1
20260830222720 103 158 2.6 4.3 0.00 0.00 0.00 21 1010.2
20260830222216 103 104 4.3 6.1 0.00 0.00 0.00 20 1010.2
20260830221711 102 190 2.6 3.5 0.00 0.00 0.00 21 1010.1
20260830221208 102 71 1.7 6.1 0.00 0.00 0.00 22 1010.2
20260830220703 102 262 2.6 6.1 0.00 0.00 0.00 22 1010.4
20260830220202 103 119 7.8 9.6 0.00 0.00 0.00 21 1010.7
20260830215701 103 102 1.7 2.6 0.00 0.00 0.00 22 1010.1
20260830215155 101 154 2.6 6.1 0.00 0.00 0.00 22 1010.4
20260830214651 101 187 0.9 7.8 0.00 0.00 0.00 23 1010.6
20260830214145 102 74 0.9 5.2 0.00 0.00 0.00 23 1010.7
20260830213644 102 153 6.1 8.7 0.00 0.00 0.00 23 1010.7
20260830213140 102 125 2.6 6.1 0.00 0.00 0.00 23 1011.1
20260830212636 102 178 3.5 6.1 0.00 0.00 0.00 23 1010.9
20260830212131 101 180 4.3 6.1 0.00 0.00 0.00 24 1010.8
20260830211626 102 77 0.0 7.8 0.00 0.00 0.00 23 1011.0
20260830211125 101 172 6.1 13.0 0.00 0.00 0.00 24 1011.2
20260830210621 102 177 2.6 7.8 0.00 0.00 0.00 24 1011.3
20260830210120 103 74 0.9 11.3 0.00 0.00 0.00 23 1011.3
20260830205617 101 151 6.1 12.2 0.00 0.00 0.00 24 1011.0
20260830205113 101 126 1.7 4.3 0.00 0.00 0.00 24 1011.2
20260830204612 101 285 0.9 4.3 0.00 0.00 0.00 24 1011.4
20260830204111 101 167 5.2 7.8 0.00 0.00 0.00 25 1011.6
20260830203608 101 145 3.5 6.1 0.00 0.00 0.00 24 1011.8
20260830203107 101 128 2.6 5.2 0.00 0.00 0.00 25 1011.6
20260830202602 100 166 2.6 7.8 0.00 0.00 0.00 26 1011.8
20260830202057 100 182 3.5 3.5 0.00 0.00 0.00 26 1011.9
20260830201557 99 169 1.7 4.3 0.00 0.00 0.00 26 1012.0
20260830201052 99 191 2.6 6.1 0.00 0.00 0.00 27 1012.2
20260830200548 100 165 8.7 9.6 0.00 0.00 0.00 27 1012.2
20260830200046 99 117 4.3 10.4 0.00 0.00 0.00 27 1012.1
20260830195542 100 180 1.7 10.4 0.00 0.00 0.00 27 1012.2
20260830195040 99 163 3.5 7.8 0.00 0.00 0.00 27 1012.6
20260830194539 98 210 1.7 3.5 0.00 0.00 0.00 27 1012.6
20260830194039 98 177 2.6 6.1 0.00 0.00 0.00 27 1012.6
20260830193538 98 164 6.1 11.3 0.00 0.00 0.00 28 1012.6
20260830193034 98 82 2.6 6.1 0.00 0.00 0.00 28 1012.7
20260830192530 97 216 0.0 6.1 0.00 0.00 0.00 29 1012.6
20260830192029 98 181 4.3 7.8 0.00 0.00 0.00 29 1012.9
20260830191525 98 157 3.5 9.6 0.00 0.00 0.00 29 1013.0
20260830191020 97 178 2.6 6.1 0.00 0.00 0.00 30 1013.0
20260830190515 97 192 4.3 10.4 0.00 0.00 0.00 30 1013.0
20260830190010 97 341 0.0 6.1 0.00 0.00 0.00 30 1012.9
20260830185504 96 57 0.0 2.6 0.00 0.00 0.00 30 1013.3
20260830185000 96 166 0.0 6.1 0.00 0.00 0.00 30 1013.1
20260830184459 96 160 3.5 6.1 0.00 0.00 0.00 30 1013.2
20260830183953 97 196 4.3 6.1 0.00 0.00 0.00 30 1013.3
20260830183448 97 240 0.0 1.7 0.00 0.00 0.00 31 1013.3
20260830182943 96 15 0.9 5.2 0.00 0.00 0.00 31 1013.6
20260830182438 96 182 3.5 7.0 0.00 0.00 0.00 31 1013.4
20260830181929 96 243 2.6 4.3 0.00 0.00 0.00 31 1013.6
20260830181424 95 218 2.6 7.0 0.00 0.00 0.00 32 1013.5
20260830180919 96 90 6.1 6.1 0.00 0.00 0.00 32 1013.7
20260830180418 94 139 2.6 7.8 0.00 0.00 0.00 33 1013.8
20260830175917 95 157 2.6 4.3 0.00 0.00 0.00 32 1013.9
20260830175412 95 114 0.0 5.2 0.00 0.00 0.00 33 1013.8
20260830174907 94 157 3.5 6.1 0.00 0.00 0.00 34 1013.9